Regional Weather Roundup
Issued by NWS

Home | Current Version | Previous Version | Text Only | Print | Product List | Glossary Off
Versions: 1 2 3 4 5 6 7 8 9 10 11 12 13 14 15 16 17 18 19 20 21 22 23 24 25 26 27 28 29 30 31 32 33 34 35 36 37 38 39 40 41 42 43 44 45 46 47 48 49 50

000
ASUS43 KOAX 200802
RWRNE

WEATHER ROUNDUP FOR NEBRASKA
NATIONAL WEATHER SERVICE OMAHA NE
300 AM CDT WED AUG 20 2014

NOTES: SATELLITE DATA IS BEING USED TO AUGMENT CLOUD COVER ABOVE
       12000 FEET.
       "FAIR" INDICATES FEW OR NO CLOUDS BELOW 12,000 FEET WITH NO
       SIGNIFICANT WEATHER AND/OR OBSTRUCTIONS TO VISIBILITY.

  * THESE STATIONS DO NOT REPORT WEATHER SUCH AS RAIN...SNOW OR FOG.

NEZ001>004-019>022-054>056-200900-
NEBRASKA PANHANDLE

CITY           SKY/WX    TMP DP  RH WIND       PRES   REMARKS
SCOTTSBLUFF    CLOUDY    66  58  75 NE3       29.81F
ALLIANCE       MOCLDY    63  55  75 CALM      29.81F
CHADRON        CLOUDY    74  53  48 SW7       29.75F
KIMBALL        CLOUDY    61  55  81 W5        29.87S
SIDNEY         CLOUDY    62  58  86 SW6       29.85S
$$

NEZ057>060-069>072-079>082-200900-
SOUTHWEST NEBRASKA

CITY           SKY/WX    TMP DP  RH WIND       PRES   REMARKS
NORTH PLATTE   CLOUDY    68  64  87 SE9       29.77F
IMPERIAL       CLOUDY    66  62  87 SE5       29.82F
LEXINGTON      CLOUDY    71  66  83 SW7       29.79R
MCCOOK         CLOUDY    72  64  76 E3        29.79F
OGALLALA       CLOUDY    65  62  91 S6        29.81R
$$

NEZ005>010-023>029-035>040-094-200900-
NORTH CENTRAL NEBRASKA

CITY           SKY/WX    TMP DP  RH WIND       PRES   REMARKS
VALENTINE      MOCLDY    71  65  81 SE7       29.77S
AINSWORTH      CLOUDY    70  68  93 SE7       29.77F
BROKEN BOW     CLOUDY    71  68  90 MISG      29.78F
O`NEILL        CLOUDY    73  68  84 SE13      29.77F
ORD            CLOUDY    73  68  84 SE6       29.76F
$$

NEZ041-046>049-061>064-073>077-083>087-200900-
SOUTH CENTRAL NEBRASKA

CITY           SKY/WX    TMP DP  RH WIND       PRES   REMARKS
GRAND ISLAND   CLOUDY    74  67  78 S9        29.77F
AURORA         CLOUDY    74  70  87 S7        29.77F
HASTINGS       CLOUDY    73  64  73 S6        29.78F
HEBRON         CLOUDY    74  65  73 S7        29.78F
HOLDREGE       CLOUDY    73  65  77 CALM      29.80S
KEARNEY *      CLOUDY    72  66  83 S8        29.79F
$$

NEZ011>018-030>034-042>045-200900-
NORTHEAST NEBRASKA

CITY           SKY/WX    TMP DP  RH WIND       PRES   REMARKS
NORFOLK        CLOUDY    71  66  84 SE8       29.76F
ALBION         CLOUDY    71  66  85 SE8       29.76F
BLAIR          MOCLDY    73  66  78 SE6       29.78F
COLUMBUS *     CLOUDY    70  66  88 E6        29.77F
FREMONT        CLOUDY    75  67  75 SE9       29.77F
TEKAMAH        CLOUDY    70  66  87 E6        29.77F
WAYNE          CLOUDY    70  67  91 SE10      29.78F THUNDER
$$

NEZ050>053-065>068-078-088>093-200900-
SOUTHEAST NEBRASKA

CITY           SKY/WX    TMP DP  RH WIND       PRES   REMARKS
LINCOLN        CLOUDY    77  70  79 S8        29.77F
OMAHA EPPLEY   MOCLDY    74  66  76 SE8       29.77F
BEATRICE       CLOUDY    75  69  79 S9        29.78F
FALLS CITY     PTCLDY    73  70  90 SE3       29.79F
NEBRASKA CITY  MOCLDY    72  72 100 SE3       29.79F
PLATTSMOUTH    MOCLDY    74  68  81 SE7       29.78F
$$

NEZ044-045-051>053-067-200900-
OMAHA AREA

CITY           SKY/WX    TMP DP  RH WIND       PRES   REMARKS
OMAHA EPPLEY   MOCLDY    74  66  76 SE8       29.77F
BLAIR          MOCLDY    73  66  78 SE6       29.78F
FREMONT        CLOUDY    75  67  75 SE9       29.77F
MILLARD        MOCLDY    74  69  82 SE6       29.77F
OFFUTT AFB     MOCLDY    72  72  99 E7        29.77F
PLATTSMOUTH    MOCLDY    74  68  81 SE7       29.78F
WAHOO          FAIR      72  68  87 SE3       29.77F
$$


USA.gov is the U.S. government's official web portal to all federal, state and local government web resources and services.